Vorticity
1 2 4 5 8 9 9 6 -0 -9 -14 -11 3 13 17 15 8 4 5 10 12 13 13 12 11 11 11 13 14 14 14 16 18 19 19 19 20 21 23 27 31 29 21 12 6 1 -1 3 13 15 12 6 8 13 18 21 18 17 18 21 20 16 10 5 11 18 24 26 29
-2 1 6 9 12 12 9 5 0 -8 -14 -13 0 11 17 17 11 4 0 3 8 11 13 12 10 10 10 12 14 15 15 16 18 20 22 22 24 25 26 26 31 33 29 18 7 -1 -6 -6 8 14 15 11 11 18 27 38 41 43 45 48 48 43 35 25 25 24 23 19 15
-0 7 14 17 15 11 5 -1 -4 -12 -18 -17 1 16 24 25 17 7 -2 -4 4 10 14 14 11 9 8 10 12 14 14 13 14 14 14 14 17 23 29 34 35 37 37 30 15 2 -9 -15 -9 2 13 19 21 23 26 29 30 30 32 35 40 43 43 40 37 33 27 20 11
9 16 21 19 10 6 4 3 2 -9 -18 -14 7 22 30 29 20 8 -1 -4 3 10 16 18 16 13 10 9 11 12 12 12 11 8 3 -3 -0 9 21 32 36 39 42 42 34 20 3 -14 -22 -21 -12 2 10 12 10 5 2 4 7 13 16 20 23 26 27 28 28 27 22
18 18 16 9 2 2 3 4 3 -6 -11 -3 12 19 20 17 12 7 3 2 6 13 19 23 22 18 14 10 11 12 13 14 14 11 5 -4 -12 -11 -2 11 22 30 37 43 45 43 33 17 -3 -17 -24 -22 -17 -16 -17 -19 -16 -9 -2 5 7 7 7 9 8 9 11 15 20
16 10 5 1 0 1 2 4 1 -2 -1 7 11 10 7 5 4 4 4 6 10 15 21 27 27 23 17 11 10 10 12 14 17 19 19 15 5 -3 -8 -9 -2 8 20 32 41 46 48 47 35 19 4 -6 -14 -24 -32 -38 -35 -27 -16 -6 3 8 11 14 15 14 11 8 9
7 6 4 4 3 2 2 2 1 3 7 11 9 7 4 3 3 4 5 7 10 16 22 29 31 27 21 12 8 7 8 10 14 18 21 24 25 22 18 11 2 -1 2 12 26 37 44 46 44 39 32 28 24 13 -4 -26 -38 -42 -35 -17 2 14 21 26 30 33 34 31 25
8 10 12 12 10 8 6 5 5 9 13 14 11 8 7 6 7 7 7 7 11 15 20 25 26 24 20 14 10 7 6 7 9 11 13 14 17 20 24 27 23 15 6 1 8 16 23 26 27 29 33 40 48 51 45 28 3 -13 -18 -5 14 24 27 27 29 32 35 36 31
15 17 18 16 14 11 9 8 11 17 21 20 17 15 13 11 10 9 8 8 10 13 16 18 17 16 15 14 12 10 9 8 7 7 7 6 7 9 13 19 26 27 23 12 3 -1 -1 0 6 13 23 33 45 56 63 65 56 41 27 20 21 19 14 9 7 6 6 7 8
21 21 20 18 16 14 13 16 24 29 32 30 25 21 17 13 9 7 7 8 9 12 14 13 12 11 10 10 10 9 9 8 6 5 4 4 4 5 8 13 20 26 29 27 17 8 1 -2 -1 2 7 14 26 37 48 57 55 45 29 14 5 -2 -9 -14 -17 -20 -20 -18 -14
20 19 17 16 18 22 27 34 37 35 31 29 23 18 12 7 6 9 12 13 14 14 14 14 14 15 16 16 15 14 13 11 9 8 7 7 8 10 12 15 17 19 20 22 22 20 18 16 11 6 0 -3 -2 3 9 15 16 12 6 -1 -7 -11 -13 -13 -10 -8 -7 -5 -3
14 14 15 17 23 30 35 37 30 22 16 15 12 12 13 14 15 16 18 20 21 20 18 17 20 24 27 29 28 27 26 24 23 21 21 20 22 24 24 21 16 11 8 6 9 16 22 26 25 21 13 4 -4 -9 -11 -9 -4 -0 2 1 1 2 6 11 15 17 18 18 16
9 11 14 18 20 21 19 16 6 0 -3 -2 3 9 13 15 15 16 18 22 23 22 19 19 19 19 20 22 25 27 29 30 31 31 31 30 29 26 21 14 10 8 7 8 9 13 16 20 25 27 26 24 20 16 12 10 12 13 13 12 13 15 18 21 22 21 20 18 16
6 10 13 13 10 7 6 6 0 -4 -4 -2 6 11 12 11 10 10 12 14 14 15 15 15 13 11 9 9 11 13 15 16 18 19 20 20 17 12 7 7 10 12 14 14 14 13 13 13 16 18 20 23 25 24 22 19 19 17 13 11 13 16 18 20 19 17 14 12 11
5 8 9 8 4 3 3 4 3 2 3 4 9 12 13 11 8 9 10 11 10 10 10 10 10 11 12 14 13 13 12 11 8 6 5 4 4 5 9 15 17 18 19 19 19 18 17 14 12 11 10 11 12 11 9 5 6 7 10 12 16 18 20 21 18 15 12 12 13
6 8 9 8 9 8 8 7 6 7 9 11 11 12 14 14 13 14 14 13 11 9 8 7 7 10 14 19 20 18 16 14 11 8 5 4 5 7 11 15 16 15 15 16 19 20 21 20 17 13 9 6 5 6 6 5 7 10 15 18 18 17 16 16 14 13 13 16 17
10 12 14 14 13 14 13 11 9 8 8 8 9 11 12 12 12 12 11 10 9 7 5 4 3 3 5 9 11 11 10 9 8 6 6 5 5 5 4 5 7 8 8 8 9 11 14 17 17 14 10 6 5 7 10 13 16 18 19 18 14 11 9 8 7 7 8 12 13
14 13 13 13 12 12 12 9 7 6 7 7 8 9 9 8 6 6 5 5 6 6 5 3 2 1 -0 -1 0 1 3 3 3 3 3 2 1 1 1 1 2 3 4 2 1 1 3 6 8 8 8 7 7 9 12 15 15 15 13 12 11 10 9 7 5 4 4 5 6
18 15 12 12 11 11 9 6 4 4 4 5 5 6 6 5 4 4 4 3 4 4 4 4 3 2 0 -2 -3 -2 -1 1 2 3 4 4 3 2 1 1 2 2 3 3 2 2 2 3 4 5 6 8 9 11 11 10 9 8 8 9 10 11 11 9 7 6 5 5 6
17 17 17 15 14 13 14 14 12 10 8 6 5 4 5 5 6 6 5 3 2 2 1 1 1 1 0 -1 -2 -1 -1 -0 1 2 3 4 5 5 5 4 3 3 3 4 4 5 6 7 8 8 8 7 6 5 4 2 1 1 3 5 8 9 9 7 6 5 4 3 4
11 13 15 14 12 12 13 15 15 13 12 10 9 8 7 7 8 8 8 8 7 5 4 3 1 1 0 0 1 1 1 1 2 2 2 3 4 5 5 6 5 5 4 4 4 5 6 8 9 9 9 7 4 -0 -3 -6 -6 -5 -3 -1 1 2 3 3 3 2 2 2 3
10 11 12 12 12 12 12 12 12 11 10 10 10 10 9 8 8 8 9 10 10 10 10 9 8 7 6 5 5 4 4 4 5 5 5 4 4 4 4 5 5 5 5 4 4 5 5 6 7 7 6 5 3 1 -2 -4 -4 -3 -2 -0 1 2 2 3 3 4 5 6 6
12 11 10 9 10 11 11 12 11 11 11 11 11 10 10 9 9 9 9 9 9 9 10 11 11 11 11 11 11 11 10 10 10 9 9 9 8 7 7 7 7 7 7 6 6 5 5 5 5 4 4 3 2 1 1 1 1 2 3 4 5 6 6 6 6 7 8 9 9
9 8 8 8 7 7 7 8 9 9 10 10 10 10 10 10 10 9 9 9 8 8 9 9 9 10 10 11 11 11 11 11 11 11 11 12 12 12 12 12 12 11 11 10 9 8 7 6 6 5 4 3 3 3 3 4 4 5 6 7 7 8 8 8 9 9 9 10 10
6 7 7 7 6 6 6 6 6 7 7 8 8 8 8 8 8 8 8 8 8 7 7 7 7 7 7 7 7 7 8 8 8 8 8 9 10 11 12 13 14 14 15 15 14 13 11 10 9 7 6 5 5 6 7 8 8 8 8 8 7 6 6 6 7 8 9 10 10
5 6 6 6 6 6 6 6 6 6 6 7 7 7 8 8 8 8 8 8 8 8 8 8 7 7 7 7 6 6 6 6 6 6 6 7 7 7 7 8 9 11 13 14 16 16 16 15 14 11 9 7 6 7 8 10 11 12 12 12 10 8 6 4 4 5 6 8 9
4 4 5 5 5 5 6 6 6 6 6 6 6 7 7 7 7 8 8 8 8 8 9 9 9 9 9 9 8 8 8 8 7 7 7 7 6 6 6 5 6 6 7 8 10 12 14 16 16 15 13 11 9 8 7 7 8 10 12 13 14 13 11 9 5 4 3 5 6
4 4 4 4 4 4 5 5 5 5 5 5 5 5 6 6 6 6 6 7 7 7 8 8 8 8 9 9 9 9 9 9 9 9 9 9 8 8 7 6 6 5 5 5 6 7 8 10 12 13 14 13 11 10 8 7 6 5 5 7 9 11 12 12 10 7 5 4 4
5 5 5 4 4 5 5 4 4 4 5 4 4 4 4 4 4 5 5 5 6 6 6 6 6 6 7 7 8 8 8 9 9 9 9 10 10 10 9 9 8 7 6 5 5 5 6 6 8 9 10 11 11 10 10 10 10 8 6 4 3 4 6 7 8 8 6 4 3
6 6 6 5 6 6 6 6 6 6 6 6 6 6 5 5 5 5 5 5 5 5 5 5 5 5 5 5 5 6 6 6 7 7 7 8 9 9 9 9 9 9 9 8 7 6 6 5 6 6 7 8 9 10 10 11 11 11 11 10 8 7 6 6 6 6 6 5 4
6 6 7 7 7 7 8 8 8 8 8 8 8 8 8 7 7 6 6 6 6 6 6 6 6 6 6 6 6 6 5 5 5 5 6 6 6 7 7 7 8 8 9 9 9 8 7 7 6 6 6 6 7 8 9 9 10 11 11 12 11 11 10 9 8 8 8 8 7
8 8 8 9 9 9 9 9 9 10 10 10 10 10 10 10 10 9 9 9 9 8 8 7 7 8 8 8 7 7 7 7 7 6 6 6 6 6 6 6 6 6 7 7 8 8 8 8 7 6 6 5 5 5 6 6 8 9 10 10 11 11 11 10 10 9 9 8 8
9 10 10 10 10 10 10 10 10 10 10 10 10 10 10 10 10 10 10 10 10 9 9 9 8 8 8 8 8 8 8 8 8 8 8 7 7 7 7 7 7 7 7 6 7 7 7 7 7 7 7 6 5 5 5 4 5 5 6 8 9 9 10 10 10 10 9 9 8
10 10 9 9 9 9 9 8 8 8 8 8 8 8 8 8 8 8 9 9 9 9 9 8 8 8 8 8 8 8 8 8 8 8 8 8 8 8 9 9 9 8 8 8 8 8 8 8 8 8 8 7 7 6 6 5 5 5 5 5 6 7 8 8 9 10 10 10 9
9 8 8 8 7 7 7 7 7 6 6 6 6 6 6 6 6 6 6 6 6 7 7 7 7 7 7 7 7 7 7 7 7 7 7 7 8 8 8 8 9 9 9 9 9 9 9 9 9 9 9 9 8 8 7 7 6 6 5 5 5 5 5 6 7 7 8 9 10
7 7 7 7 6 6 6 6 6 5 5 5 5 6 6 6 6 6 6 6 6 6 6 7 7 7 7 7 7 7 7 7 6 6 6 6 6 7 7 7 7 7 7 8 8 8 8 9 9 9 9 9 9 9 9 9 8 8 7 7 7 6 6 5 5 6 6 7 8
6 6 6 6 6 6 6 6 6 6 6 6 7 7 7 7 7 7 8 8 8 8 9 9 9 9 9 9 9 9 9 8 8 7 7 7 7 7 7 7 7 7 7 7 7 7 7 7 7 7 8 8 8 8 9 9 9 9 9 9 9 8 8 7 7 6 6 6 6
5 6 6 6 7 7 7 8 8 8 9 10 10 10 11 11 12 12 12 12 12 13 13 13 13 13 13 13 13 13 13 12 12 11 11 11 11 10 9 9 9 9 9 9 8 8 8 8 8 8 8 7 7 7 7 7 8 8 9 9 9 9 9 9 9 8 8 8 7
6 7 8 8 9 10 11 12 13 13 14 14 15 16 16 17 17 17 18 18 18 18 18 18 18 18 18 18 18 18 18 18 18 18 17 17 17 16 15 14 14 13 13 12 12 11 11 11 10 10 10 9 9 8 8 8 8 8 8 8 8 8 8 9 9 9 9 9 9
10 11 12 13 14 15 15 16 17 18 18 18 19 20 20 21 21 21 21 21 22 23 23 23 23 23 23 23 24 24 24 24 25 25 25 25 24 24 23 22 21 20 19 18 17 16 15 14 14 13 13 12 12 11 11 10 9 9 9 8 8 7 7 7 8 8 8 9 9
14 14 15 16 17 17 18 18 19 19 19 20 21 21 21 20 21 21 22 23 24 25 25 25 25 25 26 28 29 29 29 29 30 31 31 31 31 31 31 30 29 28 27 26 24 23 21 20 18 17 16 15 15 14 13 12 12 11 11 10 10 9 8 7 7 8 8 8 8
Height
2998 3000 3003 3005 3007 3009 3010 3012 3014 3016 3018 3019 3019 3019 3020 3020 3020 3021 3021 3022 3023 3023 3024 3024 3024 3025 3025 3027 3028 3029 3030 3030 3032 3033 3033 3034 3034 3034 3034 3034 3034 3035 3038 3040 3042 3045 3048 3051 3052 3053 3054 3055 3055 3055 3056 3057 3058 3059 3060 3060 3062 3063 3065 3066 3067 3068 3070 3071 3073
2997 3000 3002 3004 3006 3008 3010 3011 3013 3014 3016 3017 3017 3018 3018 3019 3019 3020 3020 3021 3022 3022 3022 3023 3023 3023 3024 3025 3026 3027 3028 3029 3030 3032 3033 3033 3034 3034 3034 3034 3033 3034 3035 3037 3040 3042 3045 3047 3050 3051 3051 3052 3053 3054 3054 3055 3056 3057 3057 3058 3059 3061 3062 3064 3065 3066 3067 3068 3069
2994 2996 2998 3000 3002 3004 3005 3007 3009 3011 3013 3015 3016 3016 3017 3017 3018 3019 3019 3020 3020 3021 3021 3021 3021 3022 3022 3024 3025 3026 3026 3028 3029 3030 3031 3032 3033 3034 3034 3034 3034 3033 3034 3035 3037 3039 3041 3044 3046 3047 3049 3050 3051 3051 3052 3053 3054 3055 3055 3056 3057 3058 3060 3060 3062 3063 3065 3065 3066
2994 2995 2996 2997 2999 3001 3004 3005 3008 3010 3012 3014 3015 3015 3015 3016 3016 3017 3018 3019 3020 3020 3020 3020 3020 3020 3021 3022 3023 3024 3025 3026 3027 3028 3028 3029 3030 3031 3033 3034 3034 3034 3034 3035 3036 3037 3039 3040 3042 3044 3045 3047 3048 3049 3050 3051 3052 3053 3054 3055 3055 3056 3057 3058 3060 3061 3062 3063 3064
2994 2995 2997 2997 2999 3001 3003 3005 3008 3010 3011 3012 3013 3013 3014 3014 3015 3016 3016 3017 3017 3018 3018 3019 3019 3020 3020 3020 3022 3023 3024 3025 3025 3026 3027 3027 3027 3028 3029 3031 3033 3034 3035 3035 3035 3036 3037 3039 3040 3041 3042 3043 3044 3045 3047 3048 3050 3051 3053 3054 3054 3055 3055 3056 3058 3060 3061 3062 3063
2993 2995 2996 2998 3000 3001 3003 3005 3007 3009 3010 3011 3011 3011 3011 3012 3013 3014 3015 3015 3015 3015 3016 3017 3018 3019 3019 3020 3020 3021 3022 3023 3024 3024 3025 3025 3026 3026 3027 3028 3029 3031 3033 3034 3035 3035 3036 3037 3038 3039 3040 3040 3040 3041 3043 3044 3046 3048 3050 3052 3053 3054 3054 3055 3055 3057 3058 3059 3060
2994 2995 2997 2998 3000 3002 3004 3005 3006 3008 3008 3009 3009 3009 3010 3011 3012 3012 3013 3014 3014 3014 3015 3015 3015 3017 3018 3019 3019 3019 3020 3020 3021 3022 3023 3024 3025 3025 3025 3026 3027 3028 3030 3031 3033 3034 3035 3036 3037 3038 3038 3038 3038 3039 3040 3041 3042 3043 3045 3048 3050 3052 3053 3053 3054 3055 3055 3056 3057
2994 2996 2997 2999 3000 3001 3003 3004 3005 3006 3007 3007 3008 3009 3009 3010 3010 3011 3012 3012 3013 3013 3014 3014 3015 3015 3016 3016 3017 3018 3018 3019 3020 3020 3021 3022 3023 3023 3024 3025 3026 3027 3028 3028 3029 3031 3033 3035 3036 3036 3037 3037 3037 3036 3037 3037 3039 3040 3043 3046 3048 3049 3050 3050 3051 3052 3053 3053 3054
2995 2996 2998 2999 2999 3000 3001 3002 3003 3005 3005 3006 3007 3007 3008 3008 3009 3010 3010 3011 3012 3012 3013 3013 3013 3014 3014 3015 3015 3015 3016 3017 3018 3019 3020 3020 3021 3022 3022 3023 3024 3025 3026 3027 3028 3028 3030 3031 3033 3035 3035 3035 3035 3035 3035 3035 3036 3038 3041 3044 3045 3045 3045 3046 3047 3047 3048 3049 3050
2995 2997 2998 2998 2998 2999 3000 3001 3002 3003 3004 3005 3005 3006 3006 3006 3007 3008 3009 3010 3010 3011 3011 3012 3012 3013 3013 3014 3014 3014 3015 3015 3016 3016 3017 3019 3020 3020 3021 3022 3023 3024 3025 3025 3026 3027 3028 3029 3030 3031 3032 3033 3033 3034 3034 3034 3035 3037 3040 3040 3040 3040 3041 3041 3042 3043 3044 3045 3045
2995 2996 2997 2997 2998 2999 3000 3000 3001 3002 3003 3004 3004 3005 3005 3005 3005 3007 3008 3009 3009 3010 3010 3011 3011 3012 3012 3013 3013 3013 3014 3014 3014 3015 3015 3016 3017 3018 3020 3021 3022 3023 3024 3025 3026 3026 3026 3026 3027 3028 3030 3030 3031 3031 3032 3033 3034 3035 3036 3036 3037 3037 3038 3039 3040 3040 3041 3041 3042
2995 2996 2996 2997 2998 2999 2999 3000 3000 3001 3002 3003 3003 3003 3003 3004 3005 3006 3007 3007 3008 3008 3009 3010 3010 3010 3011 3012 3012 3013 3013 3014 3014 3014 3015 3015 3016 3016 3017 3018 3019 3020 3022 3023 3024 3024 3025 3025 3025 3026 3027 3028 3028 3029 3030 3030 3031 3032 3033 3034 3034 3035 3035 3036 3037 3037 3038 3039 3039
2995 2995 2996 2997 2998 2998 2998 2999 2999 3000 3001 3001 3002 3003 3003 3003 3004 3005 3005 3006 3006 3007 3007 3007 3008 3008 3009 3010 3010 3011 3012 3013 3014 3014 3015 3015 3016 3017 3017 3017 3017 3018 3018 3019 3020 3021 3023 3024 3024 3024 3025 3025 3026 3026 3027 3028 3029 3030 3031 3032 3032 3032 3032 3032 3033 3034 3035 3035 3036
2995 2996 2997 2997 2998 2997 2997 2997 2998 2999 2999 3000 3001 3001 3002 3002 3003 3004 3005 3005 3005 3005 3005 3006 3006 3006 3007 3007 3008 3008 3009 3010 3011 3012 3012 3013 3014 3015 3015 3016 3016 3016 3017 3017 3018 3019 3020 3020 3022 3023 3023 3023 3024 3024 3025 3025 3026 3028 3028 3029 3029 3029 3029 3030 3030 3031 3032 3033 3034
2995 2996 2996 2997 2997 2997 2996 2997 2997 2998 2998 2998 3000 3000 3001 3001 3002 3003 3004 3004 3005 3005 3005 3005 3005 3006 3006 3006 3006 3007 3007 3007 3008 3008 3009 3010 3010 3011 3012 3013 3014 3015 3016 3017 3017 3018 3018 3018 3019 3020 3020 3021 3022 3023 3024 3025 3025 3025 3026 3026 3026 3026 3027 3027 3028 3030 3030 3031 3031
2995 2995 2995 2996 2996 2996 2996 2997 2997 2998 2998 2998 2999 3000 3000 3001 3001 3002 3003 3004 3004 3004 3005 3005 3005 3005 3006 3006 3007 3007 3007 3007 3008 3008 3009 3009 3010 3011 3011 3012 3013 3015 3016 3016 3017 3017 3018 3018 3018 3018 3018 3019 3020 3021 3022 3023 3023 3023 3024 3024 3024 3024 3025 3025 3026 3027 3027 3028 3029
2994 2994 2994 2995 2995 2996 2997 2997 2998 2998 2998 2999 2999 3000 3000 3000 3001 3002 3003 3003 3004 3004 3004 3005 3005 3005 3006 3006 3007 3007 3008 3008 3008 3009 3009 3009 3010 3010 3011 3012 3012 3013 3014 3015 3015 3016 3016 3017 3017 3017 3017 3017 3018 3018 3019 3019 3020 3020 3021 3022 3022 3023 3023 3024 3024 3025 3025 3025 3026
2994 2993 2994 2995 2996 2997 2997 2998 2998 2999 2999 2999 3000 3000 3000 3001 3001 3001 3002 3003 3003 3004 3004 3004 3004 3005 3005 3006 3006 3007 3008 3008 3008 3009 3009 3009 3010 3010 3011 3011 3012 3012 3013 3013 3014 3014 3015 3015 3015 3016 3016 3017 3017 3017 3017 3017 3017 3017 3018 3019 3020 3021 3021 3022 3022 3022 3023 3023 3024
2994 2995 2995 2996 2996 2997 2997 2998 2998 2998 2999 2999 3000 3000 3000 3000 3000 3001 3001 3002 3003 3003 3003 3004 3004 3004 3005 3005 3005 3006 3007 3007 3007 3008 3008 3009 3009 3009 3010 3010 3011 3011 3011 3011 3012 3012 3012 3013 3013 3014 3014 3015 3015 3015 3015 3015 3016 3016 3016 3017 3018 3018 3019 3020 3020 3021 3021 3021 3021
2995 2996 2996 2996 2997 2997 2998 2998 2998 2998 2998 2999 2999 3000 3000 3000 3000 3000 3001 3001 3002 3002 3002 3003 3003 3004 3004 3004 3005 3005 3006 3006 3006 3007 3007 3007 3008 3008 3008 3009 3009 3010 3010 3010 3010 3010 3010 3010 3011 3011 3011 3011 3012 3012 3013 3014 3014 3015 3015 3016 3016 3016 3016 3017 3018 3018 3019 3019 3020
2995 2996 2996 2997 2997 2997 2997 2997 2998 2998 2999 2999 2999 3000 3000 3000 3000 3000 3001 3001 3001 3002 3002 3002 3003 3003 3003 3004 3004 3004 3005 3005 3005 3005 3006 3006 3006 3007 3007 3007 3007 3008 3008 3008 3009 3009 3009 3009 3009 3009 3009 3009 3009 3010 3010 3010 3011 3012 3013 3013 3014 3014 3014 3015 3015 3015 3015 3016 3017
2995 2996 2996 2997 2997 2998 2998 2998 2998 2999 2999 3000 3000 3000 3000 3000 3000 3001 3001 3001 3002 3002 3002 3002 3002 3002 3003 3003 3003 3004 3004 3004 3004 3005 3005 3005 3005 3005 3005 3006 3006 3006 3006 3006 3007 3007 3007 3007 3007 3007 3007 3007 3007 3007 3007 3007 3008 3008 3009 3010 3010 3010 3011 3012 3012 3012 3012 3013 3013
2997 2997 2998 2998 2999 2999 3000 3000 3000 3000 3000 3001 3001 3001 3001 3001 3001 3001 3001 3002 3002 3002 3002 3002 3002 3002 3002 3002 3002 3002 3003 3003 3003 3003 3003 3003 3003 3004 3004 3004 3004 3004 3005 3005 3005 3005 3005 3005 3005 3005 3005 3005 3005 3005 3005 3005 3005 3005 3006 3006 3007 3007 3008 3008 3009 3009 3010 3010 3010
3000 3000 3000 3000 3000 3000 3000 3001 3001 3001 3001 3001 3001 3001 3001 3001 3002 3002 3002 3002 3002 3002 3002 3002 3002 3002 3002 3002 3002 3002 3002 3002 3001 3001 3002 3002 3002 3002 3002 3002 3002 3002 3002 3003 3003 3003 3003 3003 3003 3003 3003 3003 3003 3002 3002 3003 3003 3003 3003 3004 3004 3004 3005 3005 3005 3006 3006 3007 3008
3001 3001 3001 3001 3001 3001 3001 3001 3001 3001 3001 3001 3001 3001 3001 3001 3001 3001 3001 3001 3001 3001 3001 3001 3001 3001 3001 3001 3001 3001 3001 3000 3000 3000 3000 3000 3000 3000 3000 3000 3000 3000 3000 3000 3000 3000 3000 3000 3000 3001 3001 3001 3000 3000 3000 3000 3000 3000 3000 3001 3001 3001 3001 3002 3002 3003 3003 3004 3004
3002 3002 3002 3002 3001 3001 3001 3001 3001 3001 3001 3001 3001 3001 3001 3001 3001 3000 3000 3000 3000 3000 3000 3000 3000 3000 3000 3000 3000 3000 3000 3000 3000 2999 2999 2999 2999 2999 2999 2999 2999 2999 2999 2998 2998 2998 2998 2998 2998 2998 2998 2998 2998 2998 2998 2998 2998 2998 2998 2998 2998 2998 2998 2999 2999 3000 3000 3000 3000
3002 3002 3002 3002 3002 3002 3001 3001 3001 3001 3001 3001 3001 3000 3000 3000 3000 3000 3000 2999 2999 2999 2999 2999 2999 2999 2999 2999 2999 2998 2998 2998 2998 2998 2998 2997 2997 2997 2997 2997 2996 2996 2996 2996 2996 2996 2995 2995 2995 2995 2995 2995 2995 2995 2995 2995 2995 2995 2995 2995 2995 2995 2995 2995 2995 2996 2996 2996 2997
3003 3002 3002 3002 3002 3001 3001 3001 3001 3000 3000 3000 3000 3000 2999 2999 2999 2999 2998 2998 2998 2998 2997 2997 2997 2997 2997 2997 2997 2997 2996 2996 2996 2996 2996 2995 2995 2995 2995 2995 2994 2994 2994 2994 2993 2993 2993 2993 2993 2992 2992 2992 2992 2992 2992 2992 2992 2992 2992 2992 2992 2992 2992 2992 2992 2992 2993 2993 2993
3003 3002 3002 3002 3001 3001 3001 3001 3000 3000 3000 2999 2999 2999 2998 2998 2998 2997 2997 2997 2996 2996 2996 2996 2995 2995 2995 2995 2995 2995 2995 2994 2994 2994 2994 2993 2993 2992 2992 2992 2991 2991 2991 2991 2990 2990 2990 2990 2990 2989 2989 2989 2989 2989 2989 2989 2989 2989 2988 2988 2988 2988 2988 2989 2989 2989 2989 2989 2989
3003 3002 3002 3002 3001 3001 3000 3000 3000 2999 2999 2999 2998 2998 2997 2997 2996 2996 2995 2995 2995 2995 2994 2994 2994 2993 2993 2993 2993 2992 2992 2992 2992 2991 2991 2990 2990 2990 2989 2989 2989 2988 2988 2988 2987 2987 2986 2986 2986 2986 2986 2986 2986 2986 2986 2986 2985 2985 2985 2985 2985 2985 2985 2985 2985 2985 2985 2985 2985
3002 3002 3001 3001 3001 3000 3000 3000 2999 2999 2998 2998 2997 2997 2996 2996 2995 2995 2994 2994 2993 2993 2992 2992 2992 2991 2991 2990 2990 2990 2990 2989 2989 2989 2988 2988 2987 2987 2986 2986 2985 2985 2985 2985 2984 2984 2983 2983 2982 2982 2982 2982 2982 2982 2982 2982 2982 2982 2982 2982 2982 2982 2981 2981 2982 2982 2982 2982 2982
3001 3001 3000 3000 3000 2999 2999 2999 2998 2998 2997 2997 2996 2996 2995 2995 2994 2994 2993 2992 2992 2991 2991 2990 2990 2989 2989 2988 2988 2987 2987 2987 2986 2986 2985 2985 2985 2984 2983 2983 2982 2982 2981 2981 2980 2980 2980 2979 2979 2979 2978 2978 2978 2977 2977 2977 2977 2978 2978 2978 2978 2978 2978 2978 2978 2978 2978 2978 2979
3000 3000 2999 2999 2998 2998 2997 2997 2996 2996 2996 2995 2995 2994 2994 2993 2993 2992 2991 2991 2990 2990 2989 2988 2988 2987 2986 2986 2985 2985 2984 2984 2984 2983 2983 2982 2982 2981 2980 2980 2979 2979 2978 2978 2977 2976 2976 2976 2975 2975 2975 2974 2974 2974 2973 2973 2973 2973 2973 2973 2974 2974 2974 2974 2974 2974 2975 2975 2975
2999 2999 2998 2997 2997 2996 2996 2995 2995 2994 2994 2993 2993 2992 2992 2991 2991 2990 2990 2989 2988 2987 2987 2986 2985 2985 2984 2983 2983 2982 2981 2981 2980 2980 2980 2979 2979 2978 2977 2976 2975 2975 2975 2974 2974 2973 2972 2972 2971 2971 2970 2970 2970 2970 2970 2969 2969 2969 2969 2969 2969 2969 2969 2969 2970 2970 2970 2970 2970
2998 2997 2997 2996 2995 2995 2994 2993 2993 2992 2992 2991 2990 2990 2990 2989 2988 2988 2987 2987 2986 2985 2985 2984 2983 2982 2981 2980 2980 2979 2978 2978 2977 2977 2976 2976 2975 2975 2974 2973 2972 2972 2971 2970 2970 2969 2969 2968 2967 2967 2966 2966 2965 2965 2965 2965 2965 2965 2965 2965 2965 2965 2965 2965 2965 2965 2965 2965 2965
2997 2996 2995 2994 2994 2993 2992 2991 2991 2990 2989 2989 2988 2987 2987 2986 2985 2985 2984 2984 2983 2982 2981 2981 2980 2980 2979 2978 2977 2976 2975 2975 2974 2973 2972 2972 2971 2971 2970 2970 2969 2968 2967 2966 2966 2965 2965 2964 2963 2963 2962 2961 2961 2961 2960 2960 2960 2960 2960 2960 2960 2960 2960 2960 2960 2960 2960 2960 2960
2996 2995 2994 2993 2992 2991 2990 2990 2989 2988 2987 2986 2985 2985 2984 2983 2982 2982 2981 2980 2980 2979 2978 2977 2977 2976 2975 2975 2974 2973 2972 2971 2970 2970 2969 2968 2968 2967 2966 2966 2965 2964 2963 2962 2962 2961 2960 2960 2959 2958 2957 2957 2956 2956 2956 2955 2955 2955 2955 2955 2955 2955 2955 2955 2955 2955 2955 2955 2955
2996 2995 2994 2993 2992 2990 2990 2989 2988 2987 2985 2985 2984 2982 2981 2980 2980 2979 2978 2977 2976 2975 2975 2974 2973 2972 2972 2971 2970 2969 2968 2968 2967 2966 2965 2964 2964 2963 2962 2961 2961 2960 2959 2958 2957 2956 2956 2955 2954 2953 2952 2952 2951 2951 2950 2950 2950 2950 2950 2950 2949 2949 2949 2949 2949 2949 2950 2950 2950
2995 2994 2993 2992 2991 2990 2989 2988 2986 2985 2984 2983 2982 2981 2980 2978 2977 2976 2975 2974 2973 2972 2971 2970 2969 2968 2968 2967 2966 2965 2964 2963 2963 2962 2961 2960 2959 2959 2958 2957 2956 2955 2955 2954 2953 2952 2951 2950 2949 2948 2947 2946 2945 2945 2945 2945 2945 2944 2944 2944 2944 2944 2944 2944 2944 2944 2944 2944 2944
2993 2992 2991 2990 2989 2987 2986 2985 2984 2983 2982 2980 2980 2978 2977 2976 2975 2974 2972 2971 2970 2969 2968 2967 2966 2965 2964 2964 2963 2962 2960 2960 2958 2958 2957 2956 2955 2954 2954 2953 2952 2951 2950 2949 2948 2947 2946 2945 2944 2943 2941 2940 2940 2939 2939 2939 2938 2938 2938 2938 2938 2938 2937 2937 2938 2938 2937 2937 2938
2989 2988 2986 2985 2984 2983 2982 2980 2979 2978 2977 2976 2975 2974 2973 2971 2970 2969 2968 2967 2966 2965 2964 2963 2962 2961 2960 2959 2959 2958 2957 2956 2955 2953 2953 2952 2951 2950 2949 2949 2948 2947 2946 2945 2944 2943 2941 2940 2939 2938 2936 2935 2934 2934 2933 2932 2932 2932 2931 2931 2931 2931 2931 2931 2931 2931 2931 2931 2931